Year,Month,Day,Hour,Minute,Value (Times are PST for temperature in C)
2020,12,04,00,00,6.40
2020,12,04,00,01,6.40
2020,12,04,00,02,6.40
2020,12,04,00,03,6.40
2020,12,04,00,04,6.30
2020,12,04,00,05,6.30
2020,12,04,00,06,6.30
2020,12,04,00,07,6.30
2020,12,04,00,08,6.30
2020,12,04,00,09,6.30
2020,12,04,00,10,6.30
2020,12,04,00,11,6.30
2020,12,04,00,12,6.30
2020,12,04,00,13,6.30
2020,12,04,00,14,6.30
2020,12,04,00,15,6.20
2020,12,04,00,16,6.20
2020,12,04,00,17,6.20
2020,12,04,00,18,6.20
2020,12,04,00,19,6.20
2020,12,04,00,20,6.20
2020,12,04,00,21,6.20
2020,12,04,00,22,6.10
2020,12,04,00,23,6.10
2020,12,04,00,24,6.10
2020,12,04,00,25,6.10
2020,12,04,00,26,6.10
2020,12,04,00,27,6.00
2020,12,04,00,28,6.00
2020,12,04,00,29,6.00
2020,12,04,00,30,5.90
2020,12,04,00,31,5.90
2020,12,04,00,32,5.90
2020,12,04,00,33,5.80
2020,12,04,00,34,5.80
2020,12,04,00,35,5.80
2020,12,04,00,36,5.80
2020,12,04,00,37,5.70
2020,12,04,00,38,5.70
2020,12,04,00,39,5.70
2020,12,04,00,40,5.60
2020,12,04,00,41,5.60
2020,12,04,00,42,5.60
2020,12,04,00,43,5.60
2020,12,04,00,44,5.50
2020,12,04,00,45,5.50
2020,12,04,00,46,5.50
2020,12,04,00,47,5.40
2020,12,04,00,48,5.40
2020,12,04,00,49,5.40
2020,12,04,00,50,5.30
2020,12,04,00,51,5.30
2020,12,04,00,52,5.30
2020,12,04,00,53,5.20
2020,12,04,00,54,5.20
2020,12,04,00,55,5.20
2020,12,04,00,56,5.20
2020,12,04,00,57,5.10
2020,12,04,00,58,5.10
2020,12,04,00,59,5.10
2020,12,04,01,00,5.00
2020,12,04,01,01,5.00
2020,12,04,01,02,5.00
2020,12,04,01,03,4.90
2020,12,04,01,04,4.90
2020,12,04,01,05,4.90
2020,12,04,01,06,4.80
2020,12,04,01,07,4.80
2020,12,04,01,08,4.80
2020,12,04,01,09,4.80
2020,12,04,01,10,4.80
2020,12,04,01,11,4.70
2020,12,04,01,12,4.70
2020,12,04,01,13,4.70
2020,12,04,01,14,4.70
2020,12,04,01,15,4.60
2020,12,04,01,16,4.60
2020,12,04,01,17,4.60
2020,12,04,01,18,4.60
2020,12,04,01,19,4.50
2020,12,04,01,20,4.50
2020,12,04,01,21,4.50
2020,12,04,01,22,4.40
2020,12,04,01,23,4.40
2020,12,04,01,24,4.40
2020,12,04,01,25,4.40
2020,12,04,01,26,4.40
2020,12,04,01,27,4.40
2020,12,04,01,28,4.30
2020,12,04,01,29,4.30
2020,12,04,01,30,4.30
2020,12,04,01,31,4.30
2020,12,04,01,32,4.30
2020,12,04,01,33,4.30
2020,12,04,01,34,4.30
2020,12,04,01,35,4.30
2020,12,04,01,36,4.30
2020,12,04,01,37,4.20
2020,12,04,01,38,4.20
2020,12,04,01,39,4.20
2020,12,04,01,40,4.20
2020,12,04,01,41,4.20
2020,12,04,01,42,4.20
2020,12,04,01,43,4.20
2020,12,04,01,44,4.20
2020,12,04,01,45,4.30
2020,12,04,01,46,4.30
2020,12,04,01,47,4.30
2020,12,04,01,48,4.30
2020,12,04,01,49,4.30
2020,12,04,01,50,4.30
2020,12,04,01,51,4.20
2020,12,04,01,52,4.20
2020,12,04,01,53,4.20
2020,12,04,01,54,4.20
2020,12,04,01,55,4.20
2020,12,04,01,56,4.20
2020,12,04,01,57,4.20
2020,12,04,01,58,4.20
2020,12,04,01,59,4.20
2020,12,04,02,00,4.20
2020,12,04,02,01,4.20
2020,12,04,02,02,4.10
2020,12,04,02,03,4.10
2020,12,04,02,04,4.10
2020,12,04,02,05,4.10
2020,12,04,02,06,4.10
2020,12,04,02,07,4.10
2020,12,04,02,08,4.10
2020,12,04,02,09,4.10
2020,12,04,02,10,4.00
2020,12,04,02,11,4.00
2020,12,04,02,12,4.00
2020,12,04,02,13,4.00
2020,12,04,02,14,3.90
2020,12,04,02,15,3.90
2020,12,04,02,16,3.90
2020,12,04,02,17,3.90
2020,12,04,02,18,3.90
2020,12,04,02,19,3.80
2020,12,04,02,20,3.80
2020,12,04,02,21,3.80
2020,12,04,02,22,3.80
2020,12,04,02,23,3.80
2020,12,04,02,24,3.80
2020,12,04,02,25,3.80
2020,12,04,02,26,3.80
2020,12,04,02,27,3.80
2020,12,04,02,28,3.80
2020,12,04,02,29,3.80
2020,12,04,02,30,3.80
2020,12,04,02,31,3.70
2020,12,04,02,32,3.70
2020,12,04,02,33,3.70
2020,12,04,02,34,3.70
2020,12,04,02,35,3.60
2020,12,04,02,36,3.60
2020,12,04,02,37,3.60
2020,12,04,02,38,3.60
2020,12,04,02,39,3.60
2020,12,04,02,40,3.60
2020,12,04,02,41,3.50
2020,12,04,02,42,3.50
2020,12,04,02,43,3.40
2020,12,04,02,44,3.40
2020,12,04,02,45,3.40
2020,12,04,02,46,3.40
2020,12,04,02,47,3.40
2020,12,04,02,48,3.40
2020,12,04,02,49,3.40
2020,12,04,02,50,3.40
2020,12,04,02,51,3.40
2020,12,04,02,52,3.50
2020,12,04,02,53,3.50
2020,12,04,02,54,3.50
2020,12,04,02,55,3.50
2020,12,04,02,56,3.50
2020,12,04,02,57,3.50
2020,12,04,02,58,3.60
2020,12,04,02,59,3.50
2020,12,04,03,00,3.50
2020,12,04,03,01,3.50
2020,12,04,03,02,3.50
2020,12,04,03,03,3.50
2020,12,04,03,04,3.60
2020,12,04,03,05,3.60
2020,12,04,03,06,3.60
2020,12,04,03,07,3.60
2020,12,04,03,08,3.60
2020,12,04,03,09,3.50
2020,12,04,03,10,3.50
2020,12,04,03,11,3.40
2020,12,04,03,12,3.40
2020,12,04,03,13,3.40
2020,12,04,03,14,3.30
2020,12,04,03,15,3.30
2020,12,04,03,16,3.30
2020,12,04,03,17,3.30
2020,12,04,03,18,3.30
2020,12,04,03,19,3.40
2020,12,04,03,20,3.40
2020,12,04,03,21,3.40
2020,12,04,03,22,3.40
2020,12,04,03,23,3.40
2020,12,04,03,24,3.40
2020,12,04,03,25,3.40
2020,12,04,03,26,3.40
2020,12,04,03,27,3.50
2020,12,04,03,28,3.40
2020,12,04,03,29,3.40
2020,12,04,03,30,3.50
2020,12,04,03,31,3.50
2020,12,04,03,32,3.50
2020,12,04,03,33,3.50
2020,12,04,03,34,3.50
2020,12,04,03,35,3.50
2020,12,04,03,36,3.50
2020,12,04,03,37,3.60
2020,12,04,03,38,3.60
2020,12,04,03,39,3.60
2020,12,04,03,40,3.60
2020,12,04,03,41,3.60
2020,12,04,03,42,3.60
2020,12,04,03,43,3.50
2020,12,04,03,44,3.50
2020,12,04,03,45,3.40
2020,12,04,03,46,3.40
2020,12,04,03,47,3.40
2020,12,04,03,48,3.40
2020,12,04,03,49,3.40
2020,12,04,03,50,3.40
2020,12,04,03,51,3.40
2020,12,04,03,52,3.40
2020,12,04,03,53,3.40
2020,12,04,03,54,3.40
2020,12,04,03,55,3.40
2020,12,04,03,56,3.30
2020,12,04,03,57,3.30
2020,12,04,03,58,3.30
2020,12,04,03,59,3.20
2020,12,04,04,00,3.20
2020,12,04,04,01,3.20
2020,12,04,04,02,3.20
2020,12,04,04,03,3.10
2020,12,04,04,04,3.10
2020,12,04,04,05,3.10
2020,12,04,04,06,3.10
2020,12,04,04,07,3.10
2020,12,04,04,08,3.00
2020,12,04,04,09,3.00
2020,12,04,04,10,3.00
2020,12,04,04,11,3.00
2020,12,04,04,12,3.00
2020,12,04,04,13,3.00
2020,12,04,04,14,3.00
2020,12,04,04,15,3.00
2020,12,04,04,16,3.00
2020,12,04,04,17,3.00
2020,12,04,04,18,3.00
2020,12,04,04,19,3.00
2020,12,04,04,20,3.00
2020,12,04,04,21,3.10
2020,12,04,04,22,3.00
2020,12,04,04,23,3.00
2020,12,04,04,24,3.00
2020,12,04,04,25,3.00
2020,12,04,04,26,3.00
2020,12,04,04,27,2.90
2020,12,04,04,28,2.90
2020,12,04,04,29,2.90
2020,12,04,04,30,2.90
2020,12,04,04,31,2.90
2020,12,04,04,32,2.80
2020,12,04,04,33,2.80
2020,12,04,04,34,2.80
2020,12,04,04,35,2.80
2020,12,04,04,36,2.70
2020,12,04,04,37,2.70
2020,12,04,04,38,2.70
2020,12,04,04,39,2.70
2020,12,04,04,40,2.70
2020,12,04,04,41,2.70
2020,12,04,04,42,2.60
2020,12,04,04,43,2.60
2020,12,04,04,44,2.60
2020,12,04,04,45,2.60
2020,12,04,04,46,2.60
2020,12,04,04,47,2.60
2020,12,04,04,48,2.60
2020,12,04,04,49,2.50
2020,12,04,04,50,2.50
2020,12,04,04,51,2.50
2020,12,04,04,52,2.50
2020,12,04,04,53,2.50
2020,12,04,04,54,2.40
2020,12,04,04,55,2.40
2020,12,04,04,56,2.40
2020,12,04,04,57,2.50
2020,12,04,04,58,2.50
2020,12,04,04,59,2.50
2020,12,04,05,00,2.60
2020,12,04,05,01,2.60
2020,12,04,05,02,2.50
2020,12,04,05,03,2.50
2020,12,04,05,04,2.50
2020,12,04,05,05,2.50
2020,12,04,05,06,2.50
2020,12,04,05,07,2.50
2020,12,04,05,08,2.50
2020,12,04,05,09,2.40
2020,12,04,05,10,2.40
2020,12,04,05,11,2.40
2020,12,04,05,12,2.40
2020,12,04,05,13,2.40
2020,12,04,05,14,2.40
2020,12,04,05,15,2.40
2020,12,04,05,16,2.40
2020,12,04,05,17,2.40
2020,12,04,05,18,2.40
2020,12,04,05,19,2.30
2020,12,04,05,20,2.30
2020,12,04,05,21,2.30
2020,12,04,05,22,2.30
2020,12,04,05,23,2.30
2020,12,04,05,24,2.30
2020,12,04,05,25,2.30
2020,12,04,05,26,2.30
2020,12,04,05,27,2.30
2020,12,04,05,28,2.30
2020,12,04,05,29,2.30
2020,12,04,05,30,2.30
2020,12,04,05,31,2.30
2020,12,04,05,32,2.30
2020,12,04,05,33,2.30
2020,12,04,08,56,2.30
2020,12,04,08,57,2.30
2020,12,04,08,58,2.40
2020,12,04,08,59,2.40
2020,12,04,09,00,2.50
2020,12,04,09,01,2.50
2020,12,04,09,02,2.60
2020,12,04,09,03,2.60
2020,12,04,09,04,2.70
2020,12,04,09,05,2.70
2020,12,04,09,06,2.80
2020,12,04,09,07,2.80
2020,12,04,09,08,2.90
2020,12,04,09,09,3.00
2020,12,04,09,10,3.00
2020,12,04,09,11,3.10
2020,12,04,09,12,3.10
2020,12,04,09,13,3.20
2020,12,04,09,14,3.20
2020,12,04,09,15,3.20
2020,12,04,09,16,3.30
2020,12,04,09,17,3.30
2020,12,04,09,18,3.30
2020,12,04,09,19,3.40
2020,12,04,09,20,3.40
2020,12,04,09,21,3.50
2020,12,04,09,22,3.60
2020,12,04,09,23,3.70
2020,12,04,09,24,3.70
2020,12,04,09,25,3.80
2020,12,04,09,26,3.80
2020,12,04,09,27,3.80
2020,12,04,09,28,3.80
2020,12,04,09,29,3.80
2020,12,04,09,30,3.90
2020,12,04,09,31,3.90
2020,12,04,09,32,3.90
2020,12,04,09,33,4.00
2020,12,04,09,34,4.00
2020,12,04,09,35,4.10
2020,12,04,09,36,4.20
2020,12,04,09,37,4.30
2020,12,04,09,38,4.40
2020,12,04,09,39,4.50
2020,12,04,09,40,4.60
2020,12,04,09,41,4.70
2020,12,04,09,42,4.80
2020,12,04,09,43,4.80
2020,12,04,09,44,4.90
2020,12,04,09,45,5.00
2020,12,04,09,46,5.00
2020,12,04,09,47,5.00
2020,12,04,09,48,5.00
2020,12,04,09,49,5.00
2020,12,04,09,50,5.10
2020,12,04,09,51,5.10
2020,12,04,09,52,5.10
2020,12,04,09,53,5.10
2020,12,04,09,54,5.10
2020,12,04,09,55,5.10
2020,12,04,09,56,5.10
2020,12,04,09,57,5.10
2020,12,04,09,58,5.20
2020,12,04,09,59,5.20
2020,12,04,10,00,5.30
2020,12,04,10,01,5.30
2020,12,04,10,02,5.40
2020,12,04,10,03,5.50
2020,12,04,10,04,5.50
2020,12,04,10,05,5.50
2020,12,04,10,06,5.50
2020,12,04,10,07,5.40
2020,12,04,10,08,5.40
2020,12,04,10,09,5.40
2020,12,04,10,10,5.50
2020,12,04,10,11,5.70
2020,12,04,10,12,5.70
2020,12,04,10,13,5.70
2020,12,04,10,14,5.70
2020,12,04,10,15,5.70
2020,12,04,10,16,5.80
2020,12,04,10,17,5.80
2020,12,04,10,18,5.80
2020,12,04,10,19,5.90
2020,12,04,10,20,5.90
2020,12,04,10,21,5.90
2020,12,04,10,22,5.90
2020,12,04,10,23,5.90
2020,12,04,10,24,6.00
2020,12,04,10,25,6.10
2020,12,04,10,26,6.20
2020,12,04,10,27,6.30
2020,12,04,10,28,6.30
2020,12,04,10,29,6.30
2020,12,04,10,30,6.20
2020,12,04,10,31,6.20
2020,12,04,10,32,6.20
2020,12,04,10,33,6.20
2020,12,04,10,34,6.20
2020,12,04,10,35,6.20
2020,12,04,10,36,6.40
2020,12,04,10,37,6.50
2020,12,04,10,38,6.70
2020,12,04,10,39,6.80
2020,12,04,10,40,6.80
2020,12,04,10,41,6.80
2020,12,04,10,42,6.80
2020,12,04,10,43,6.80
2020,12,04,10,44,6.80
2020,12,04,10,45,6.80
2020,12,04,10,46,6.80
2020,12,04,10,47,6.80
2020,12,04,10,48,6.90
2020,12,04,10,49,6.90
2020,12,04,10,50,6.90
2020,12,04,10,51,7.00
2020,12,04,10,52,7.00
2020,12,04,10,53,7.00
2020,12,04,10,54,7.00
2020,12,04,10,55,7.10
2020,12,04,10,56,7.10
2020,12,04,10,57,7.10
2020,12,04,10,58,7.20
2020,12,04,10,59,7.20
2020,12,04,11,00,7.20
2020,12,04,11,01,7.30
2020,12,04,11,02,7.40
2020,12,04,11,03,7.40
2020,12,04,11,04,7.50
2020,12,04,11,05,7.60
2020,12,04,11,06,7.70
2020,12,04,11,07,7.80
2020,12,04,11,08,7.90
2020,12,04,11,09,8.00
2020,12,04,11,10,8.00
2020,12,04,11,11,8.10
2020,12,04,11,12,8.20
2020,12,04,11,13,8.20
2020,12,04,11,14,8.30
2020,12,04,11,15,8.30
2020,12,04,11,16,8.30
2020,12,04,11,17,8.40
2020,12,04,11,18,8.40
2020,12,04,11,19,8.50
2020,12,04,11,20,8.60
2020,12,04,11,21,8.70
2020,12,04,11,22,8.80
2020,12,04,11,23,8.80
2020,12,04,11,24,8.80
2020,12,04,11,25,8.90
2020,12,04,11,26,8.90
2020,12,04,11,27,8.90
2020,12,04,11,28,8.90
2020,12,04,11,29,9.00
2020,12,04,11,30,9.00
2020,12,04,11,31,9.10
2020,12,04,11,32,9.10
2020,12,04,11,33,9.10
2020,12,04,11,34,9.10
2020,12,04,11,35,9.10
2020,12,04,11,36,9.20
2020,12,04,11,37,9.30
2020,12,04,11,38,9.40
2020,12,04,11,39,9.50
2020,12,04,11,40,9.50
2020,12,04,11,41,9.60
2020,12,04,11,42,9.60
2020,12,04,11,43,9.60
2020,12,04,11,44,9.60
2020,12,04,11,45,9.60
2020,12,04,11,46,9.60
2020,12,04,11,47,9.60
2020,12,04,11,48,9.60
2020,12,04,11,49,9.60
2020,12,04,11,50,9.60
2020,12,04,11,51,9.70
2020,12,04,11,52,9.70
2020,12,04,11,53,9.80
2020,12,04,11,54,9.90
2020,12,04,11,55,10.00
2020,12,04,11,56,10.10
2020,12,04,11,57,10.10
2020,12,04,11,58,10.10
2020,12,04,11,59,10.10
2020,12,04,12,00,10.00
2020,12,04,12,01,10.00
2020,12,04,12,02,9.90
2020,12,04,12,03,9.90
2020,12,04,12,04,9.90
2020,12,04,12,05,9.80
2020,12,04,12,06,9.80
2020,12,04,12,07,9.80
2020,12,04,12,08,9.90
2020,12,04,12,09,9.90
2020,12,04,12,10,10.00
2020,12,04,12,11,10.00
2020,12,04,12,12,10.00
2020,12,04,12,13,10.10
2020,12,04,12,14,10.10
2020,12,04,12,15,10.20
2020,12,04,12,16,10.20
2020,12,04,12,17,10.20
2020,12,04,12,18,10.20
2020,12,04,12,19,10.30
2020,12,04,12,20,10.30
2020,12,04,12,21,10.30
2020,12,04,12,22,10.30
2020,12,04,12,23,10.30
2020,12,04,12,24,10.30
2020,12,04,12,25,10.30
2020,12,04,12,26,10.30
2020,12,04,12,27,10.20
2020,12,04,12,28,10.20
2020,12,04,12,29,10.10
2020,12,04,12,30,10.10
2020,12,04,12,31,10.10
2020,12,04,12,32,10.00
2020,12,04,12,33,10.00
2020,12,04,12,34,10.00
2020,12,04,12,35,10.00
2020,12,04,12,36,9.90
2020,12,04,12,37,9.90
2020,12,04,12,38,9.90
2020,12,04,12,39,9.90
2020,12,04,12,40,9.80
2020,12,04,12,41,9.80
2020,12,04,12,42,9.80
2020,12,04,12,43,9.80
2020,12,04,12,44,9.70
2020,12,04,12,45,9.70
2020,12,04,12,46,9.70
2020,12,04,12,47,9.70
2020,12,04,12,48,9.60
2020,12,04,12,49,9.60
2020,12,04,12,50,9.70
2020,12,04,12,51,9.70
2020,12,04,12,52,9.70
2020,12,04,12,53,9.70
2020,12,04,12,54,9.70
2020,12,04,12,55,9.70
2020,12,04,12,56,9.70
2020,12,04,12,57,9.80
2020,12,04,12,58,9.80
2020,12,04,12,59,9.80
2020,12,04,13,00,9.80
2020,12,04,13,01,9.80
2020,12,04,13,02,9.80
2020,12,04,13,03,9.80
2020,12,04,13,04,9.70
2020,12,04,13,05,9.70
2020,12,04,13,06,9.70
2020,12,04,13,07,9.70
2020,12,04,13,08,9.70
2020,12,04,13,09,9.70
2020,12,04,13,10,9.70
2020,12,04,13,11,9.70
2020,12,04,13,12,9.60
2020,12,04,13,13,9.70
2020,12,04,13,14,9.70
2020,12,04,13,15,9.70
2020,12,04,13,16,9.70
2020,12,04,13,17,9.70
2020,12,04,13,18,9.70
2020,12,04,13,19,9.80
2020,12,04,13,20,9.80
2020,12,04,13,21,9.80
2020,12,04,13,22,9.90
2020,12,04,13,23,9.90
2020,12,04,13,24,9.90
2020,12,04,13,25,10.00
2020,12,04,13,26,10.00
2020,12,04,13,27,10.00
2020,12,04,13,28,10.00
2020,12,04,13,29,10.00
2020,12,04,13,30,10.10
2020,12,04,13,31,10.10
2020,12,04,13,32,10.20
2020,12,04,13,33,10.20
2020,12,04,13,34,10.20
2020,12,04,13,35,10.20
2020,12,04,13,36,10.20
2020,12,04,13,37,10.20
2020,12,04,13,38,10.10
2020,12,04,13,39,10.10
2020,12,04,13,40,10.10
2020,12,04,13,41,10.10
2020,12,04,13,42,10.10
2020,12,04,13,43,10.10
2020,12,04,13,44,10.10
2020,12,04,13,45,10.10
2020,12,04,13,46,10.10
2020,12,04,13,47,10.10
2020,12,04,13,48,10.00
2020,12,04,13,49,10.00
2020,12,04,13,50,10.00
2020,12,04,13,51,10.10
2020,12,04,13,52,10.20
2020,12,04,13,53,10.20
2020,12,04,13,54,10.20
2020,12,04,13,55,10.20
2020,12,04,13,56,10.20
2020,12,04,13,57,10.10
2020,12,04,13,58,10.10
2020,12,04,13,59,10.10
2020,12,04,14,00,10.10
2020,12,04,14,01,10.10
2020,12,04,14,02,10.00
2020,12,04,14,03,10.00
2020,12,04,14,04,9.90
2020,12,04,14,05,9.90
2020,12,04,14,06,9.80
2020,12,04,14,07,9.80
2020,12,04,14,08,9.80
2020,12,04,14,09,9.80
2020,12,04,14,10,9.80
2020,12,04,14,11,9.80
2020,12,04,14,12,9.80
2020,12,04,14,13,9.80
2020,12,04,14,14,9.80
2020,12,04,14,15,9.80
2020,12,04,14,16,9.80
2020,12,04,14,17,9.80
2020,12,04,14,18,9.80
2020,12,04,14,19,9.70
2020,12,04,14,20,9.70
2020,12,04,14,21,9.70
2020,12,04,14,22,9.70
2020,12,04,14,23,9.70
2020,12,04,14,24,9.70
2020,12,04,14,25,9.70
2020,12,04,14,26,9.70
2020,12,04,14,27,9.70
2020,12,04,14,28,9.60
2020,12,04,14,29,9.60
2020,12,04,14,30,9.60
2020,12,04,14,31,9.60
2020,12,04,14,32,9.60
2020,12,04,14,33,9.50
2020,12,04,14,34,9.50
2020,12,04,14,35,9.40
2020,12,04,14,36,9.30
2020,12,04,14,37,9.30
2020,12,04,14,38,9.30
2020,12,04,14,39,9.20
2020,12,04,14,40,9.20
2020,12,04,14,41,9.10
2020,12,04,14,42,9.10
2020,12,04,14,43,9.00
2020,12,04,14,44,9.00
2020,12,04,14,45,8.90
2020,12,04,14,46,8.90
2020,12,04,14,47,8.80
2020,12,04,14,48,8.70
2020,12,04,14,49,8.70
2020,12,04,14,50,8.60
2020,12,04,14,51,8.50
2020,12,04,14,52,8.50
2020,12,04,14,53,8.40
2020,12,04,14,54,8.40
2020,12,04,14,55,8.30
2020,12,04,14,56,8.30
2020,12,04,14,57,8.20
2020,12,04,14,58,8.10
2020,12,04,14,59,8.00
2020,12,04,15,00,8.00
2020,12,04,15,01,7.90
2020,12,04,15,02,7.90
2020,12,04,15,03,7.90
2020,12,04,15,04,7.80
2020,12,04,15,05,7.80
2020,12,04,15,06,7.80
2020,12,04,15,07,7.70
2020,12,04,15,08,7.70
2020,12,04,15,09,7.70
2020,12,04,15,10,7.70
2020,12,04,15,11,7.60
2020,12,04,15,12,7.60
2020,12,04,15,13,7.60
2020,12,04,15,14,7.60
2020,12,04,15,15,7.60
2020,12,04,15,16,7.60
2020,12,04,15,17,7.60
2020,12,04,15,18,7.50
2020,12,04,15,19,7.50
2020,12,04,15,20,7.50
2020,12,04,15,21,7.50
2020,12,04,15,22,7.40
2020,12,04,15,23,7.40
2020,12,04,15,24,7.40
2020,12,04,15,25,7.40
2020,12,04,15,26,7.40
2020,12,04,15,27,7.50
2020,12,04,15,28,7.50
2020,12,04,15,29,7.50
2020,12,04,15,30,7.50
2020,12,04,15,31,7.50
2020,12,04,15,32,7.60
2020,12,04,15,33,7.60
2020,12,04,15,34,7.60
2020,12,04,15,35,7.60
2020,12,04,15,36,7.60
2020,12,04,15,37,7.60
2020,12,04,15,38,7.70
2020,12,04,15,39,7.70
2020,12,04,15,40,7.70
2020,12,04,15,41,7.70
2020,12,04,15,42,7.70
2020,12,04,15,43,7.70
2020,12,04,15,44,7.70
2020,12,04,15,45,7.70
2020,12,04,15,46,7.70
2020,12,04,15,47,7.60
2020,12,04,15,48,7.60
2020,12,04,15,49,7.60
2020,12,04,15,50,7.60
2020,12,04,15,51,7.60
2020,12,04,15,52,7.60
2020,12,04,15,53,7.60
2020,12,04,15,54,7.60
2020,12,04,15,55,7.60
2020,12,04,15,56,7.60
2020,12,04,15,57,7.50
2020,12,04,15,58,7.50
2020,12,04,15,59,7.50
2020,12,04,16,00,7.50
2020,12,04,16,01,7.40
2020,12,04,16,02,7.40
2020,12,04,16,03,7.40
2020,12,04,16,04,7.30
2020,12,04,16,05,7.30
2020,12,04,16,06,7.30
2020,12,04,16,07,7.20
2020,12,04,16,08,7.20
2020,12,04,16,09,7.20
2020,12,04,16,10,7.10
2020,12,04,16,11,7.10
2020,12,04,16,12,7.00
2020,12,04,16,13,7.00
2020,12,04,16,14,6.90
2020,12,04,16,15,6.90
2020,12,04,16,16,6.90
2020,12,04,16,17,6.90
2020,12,04,16,18,6.80
2020,12,04,16,19,6.80
2020,12,04,16,20,6.80
2020,12,04,16,21,6.70
2020,12,04,16,22,6.70
2020,12,04,16,23,6.70
2020,12,04,16,24,6.60
2020,12,04,16,25,6.60
2020,12,04,16,26,6.60
2020,12,04,16,27,6.50
2020,12,04,16,28,6.50
2020,12,04,16,29,6.40
2020,12,04,16,30,6.40
2020,12,04,16,31,6.40
2020,12,04,16,32,6.30
2020,12,04,16,33,6.30
2020,12,04,16,34,6.30
2020,12,04,16,35,6.30
2020,12,04,16,36,6.20
2020,12,04,16,37,6.20
2020,12,04,16,38,6.20
2020,12,04,16,39,6.20
2020,12,04,16,40,6.20
2020,12,04,16,41,6.10
2020,12,04,16,42,6.10
2020,12,04,16,43,6.10
2020,12,04,16,44,6.00
2020,12,04,16,45,6.00
2020,12,04,16,46,6.00
2020,12,04,16,47,5.90
2020,12,04,16,48,5.90
2020,12,04,16,49,5.90
2020,12,04,16,50,5.90
2020,12,04,16,51,5.80
2020,12,04,16,52,5.80
2020,12,04,16,53,5.80
2020,12,04,16,54,5.80
2020,12,04,16,55,5.70
2020,12,04,16,56,5.70
2020,12,04,16,57,5.70
2020,12,04,16,58,5.70
2020,12,04,16,59,5.70
2020,12,04,17,00,5.60
2020,12,04,17,01,5.60
2020,12,04,17,02,5.60
2020,12,04,17,03,5.60
2020,12,04,17,04,5.60
2020,12,04,17,05,5.50
2020,12,04,17,06,5.50
2020,12,04,17,07,5.40
2020,12,04,17,08,5.40
2020,12,04,17,09,5.40
2020,12,04,17,10,5.40
2020,12,04,17,11,5.40
2020,12,04,17,12,5.30
2020,12,04,17,13,5.30
2020,12,04,17,14,5.30
2020,12,04,17,15,5.30
2020,12,04,17,16,5.20
2020,12,04,17,17,5.20
2020,12,04,17,18,5.20
2020,12,04,17,19,5.20
2020,12,04,17,20,5.10
2020,12,04,17,21,5.10
2020,12,04,17,22,5.10
2020,12,04,17,23,5.10
2020,12,04,17,24,5.10
2020,12,04,17,25,5.00
2020,12,04,17,26,5.00
2020,12,04,17,27,5.00
2020,12,04,17,28,4.90
2020,12,04,17,29,4.90
2020,12,04,17,30,4.90
2020,12,04,17,31,4.90
2020,12,04,17,32,4.90
2020,12,04,17,33,4.80
2020,12,04,17,34,4.80
2020,12,04,17,35,4.80
2020,12,04,17,36,4.80
2020,12,04,17,37,4.80
2020,12,04,17,38,4.80
2020,12,04,17,39,4.80
2020,12,04,17,40,4.70
2020,12,04,17,41,4.70
2020,12,04,17,42,4.70
2020,12,04,17,43,4.70
2020,12,04,17,44,4.70
2020,12,04,17,45,4.60
2020,12,04,17,46,4.60
2020,12,04,17,47,4.60
2020,12,04,17,48,4.60
2020,12,04,17,49,4.50
2020,12,04,17,50,4.50
2020,12,04,17,51,4.50
2020,12,04,17,52,4.50
2020,12,04,17,53,4.40
2020,12,04,17,54,4.40
2020,12,04,17,55,4.40
2020,12,04,17,56,4.40
2020,12,04,17,57,4.30
2020,12,04,17,58,4.30
2020,12,04,17,59,4.30
2020,12,04,18,00,4.30
2020,12,04,18,01,4.20
2020,12,04,18,02,4.20
2020,12,04,18,03,4.20
2020,12,04,18,04,4.20
2020,12,04,18,05,4.20
2020,12,04,18,06,4.20
2020,12,04,18,07,4.10
2020,12,04,18,08,4.10
2020,12,04,18,09,4.10
2020,12,04,18,10,4.10
2020,12,04,18,11,4.10
2020,12,04,18,12,4.10
2020,12,04,18,13,4.00
2020,12,04,18,14,4.00
2020,12,04,18,15,4.00
2020,12,04,18,16,4.00
2020,12,04,18,17,3.90
2020,12,04,18,18,3.90
2020,12,04,18,19,3.90
2020,12,04,18,20,3.90
2020,12,04,18,21,3.80
2020,12,04,18,22,3.80
2020,12,04,18,23,3.80
2020,12,04,18,24,3.80
2020,12,04,18,25,3.80
2020,12,04,18,26,3.80
2020,12,04,18,27,3.80
2020,12,04,18,28,3.80
2020,12,04,18,29,3.70
2020,12,04,18,30,3.70
2020,12,04,18,31,3.70
2020,12,04,18,32,3.70
2020,12,04,18,33,3.70
2020,12,04,18,34,3.70
2020,12,04,18,35,3.70
2020,12,04,18,36,3.70
2020,12,04,18,37,3.60
2020,12,04,18,38,3.60
2020,12,04,18,39,3.60
2020,12,04,18,40,3.60
2020,12,04,18,41,3.60
2020,12,04,18,42,3.50
2020,12,04,18,43,3.50
2020,12,04,18,44,3.50
2020,12,04,18,45,3.50
2020,12,04,18,46,3.50
2020,12,04,18,47,3.50
2020,12,04,18,48,3.40
2020,12,04,18,49,3.40
2020,12,04,18,50,3.40
2020,12,04,18,51,3.40
2020,12,04,18,52,3.30
2020,12,04,18,53,3.30
2020,12,04,18,54,3.30
2020,12,04,18,55,3.30
2020,12,04,18,56,3.30
2020,12,04,18,57,3.30
2020,12,04,18,58,3.20
2020,12,04,18,59,3.20
2020,12,04,19,00,3.20
2020,12,04,19,01,3.20
2020,12,04,19,02,3.20
2020,12,04,19,03,3.20
2020,12,04,19,04,3.20
2020,12,04,19,05,3.10
2020,12,04,19,06,3.10
2020,12,04,19,07,3.10
2020,12,04,19,08,3.10
2020,12,04,19,09,3.10
2020,12,04,19,10,3.10
2020,12,04,19,11,3.00
2020,12,04,19,12,3.00
2020,12,04,19,13,3.00
2020,12,04,19,14,2.90
2020,12,04,19,15,2.90
2020,12,04,19,16,2.90
2020,12,04,19,17,2.90
2020,12,04,19,18,2.90
2020,12,04,19,19,2.90
2020,12,04,19,20,2.80
2020,12,04,19,21,2.80
2020,12,04,19,22,2.80
2020,12,04,19,23,2.80
2020,12,04,19,24,2.80
2020,12,04,19,25,2.80
2020,12,04,19,26,2.80
2020,12,04,19,27,2.80
2020,12,04,19,28,2.70
2020,12,04,19,29,2.70
2020,12,04,19,30,2.70
2020,12,04,19,31,2.70
2020,12,04,19,32,2.70
2020,12,04,19,33,2.70
2020,12,04,19,34,2.70
2020,12,04,19,35,2.70
2020,12,04,19,36,2.70
2020,12,04,19,37,2.70
2020,12,04,19,38,2.70
2020,12,04,19,39,2.70
2020,12,04,19,40,2.70
2020,12,04,19,41,2.70
2020,12,04,19,42,2.70
2020,12,04,19,43,2.70
2020,12,04,19,44,2.70
2020,12,04,19,45,2.70
2020,12,04,19,46,2.70
2020,12,04,19,47,2.70
2020,12,04,19,48,2.70
2020,12,04,19,49,2.70
2020,12,04,19,50,2.70
2020,12,04,19,51,2.70
2020,12,04,19,52,2.70
2020,12,04,19,53,2.70
2020,12,04,19,54,2.70
2020,12,04,19,55,2.70
2020,12,04,19,56,2.70
2020,12,04,19,57,2.70
2020,12,04,19,58,2.70
2020,12,04,19,59,2.70
2020,12,04,20,00,2.70
2020,12,04,20,01,2.70
2020,12,04,20,02,2.70
2020,12,04,20,03,2.70
2020,12,04,20,04,2.70
2020,12,04,20,05,2.70
2020,12,04,20,06,2.70
2020,12,04,20,07,2.70
2020,12,04,20,08,2.80
2020,12,04,20,09,2.80
2020,12,04,20,10,2.90
2020,12,04,20,11,3.00
2020,12,04,20,12,3.10
2020,12,04,20,13,3.10
2020,12,04,20,14,3.20
2020,12,04,20,15,3.20
2020,12,04,20,16,3.20
2020,12,04,20,17,3.30
2020,12,04,20,18,3.40
2020,12,04,20,19,3.60
2020,12,04,20,20,3.70
2020,12,04,20,21,3.80
2020,12,04,20,22,3.90
2020,12,04,20,23,3.90
2020,12,04,20,24,4.00
2020,12,04,20,25,4.00
2020,12,04,20,26,4.10
2020,12,04,20,27,4.20
2020,12,04,20,28,4.30
2020,12,04,20,29,4.40
2020,12,04,20,30,4.50
2020,12,04,20,31,4.50
2020,12,04,20,32,4.60
2020,12,04,20,33,4.60
2020,12,04,20,34,4.60
2020,12,04,20,35,4.70
2020,12,04,20,36,4.80
2020,12,04,20,37,4.80
2020,12,04,20,38,4.80
2020,12,04,20,39,4.80
2020,12,04,20,40,4.80
2020,12,04,20,41,4.80
2020,12,04,20,42,4.80
2020,12,04,20,43,4.80
2020,12,04,20,44,4.80
2020,12,04,20,45,4.80
2020,12,04,20,46,4.80
2020,12,04,20,47,4.80
2020,12,04,20,48,4.70
2020,12,04,20,49,4.70
2020,12,04,20,50,4.70
2020,12,04,20,51,4.70
2020,12,04,20,52,4.70
2020,12,04,20,53,4.70
2020,12,04,20,54,4.70
2020,12,04,20,55,4.70
2020,12,04,20,56,4.70
2020,12,04,20,57,4.70
2020,12,04,20,58,4.70
2020,12,04,20,59,4.60
2020,12,04,21,00,4.60
2020,12,04,21,01,4.60
2020,12,04,21,02,4.60
2020,12,04,21,03,4.60
2020,12,04,21,04,4.60
2020,12,04,21,05,4.60
2020,12,04,21,06,4.60
2020,12,04,21,07,4.70
2020,12,04,21,08,4.70
2020,12,04,21,09,4.70
2020,12,04,21,10,4.80
2020,12,04,21,11,4.80
2020,12,04,21,12,4.80
2020,12,04,21,13,4.80
2020,12,04,21,14,4.80
2020,12,04,21,15,4.70
2020,12,04,21,16,4.70
2020,12,04,21,17,4.70
2020,12,04,21,18,4.70
2020,12,04,21,19,4.60
2020,12,04,21,20,4.60
2020,12,04,21,21,4.60
2020,12,04,21,22,4.50
2020,12,04,21,23,4.50
2020,12,04,21,24,4.40
2020,12,04,21,25,4.40